User: anonymous
Location: Unspecified
(0.0000°N, 0.0000°E)
Time: 02:19:57
(UTC+00:00)
Language:

ETS 8 - Orbit

View from above orbital plane
View from above orbital plane
View from above satellite
View from above satellite

Ground track
Ground track

The orbit data is extracted from the following two-line orbital elements,

1 29656U 06059A   14245.43423024 -.00000252  00000-0  00000+0 0  4844
2 29656 003.6680 066.0641 0005997 078.5977 138.9079 01.00274195 28263
Epoch (UTC): 02 September 2014 10:25:17
Eccentricity: 0.0005997
inclination: 3.6680°
perigee height: 35760 km
apogee height: 35811 km
right ascension of ascending node: 66.0641°
argument of perigee: 78.5977°
revolutions per day: 1.00274195
mean anomaly at epoch: 138.9079°
orbit number at epoch: 2826

The dashed part of the orbit path shows where the satellite is in the earth's shadow,  

DLR